Regional Weather Roundup
Issued by NWS

Home | Current Version | Previous Version | Graphics & Text | Print | Product List | Glossary Off
Versions: 1 2 3 4 5 6 7 8 9 10 11 12 13 14 15 16 17 18 19 20 21 22 23 24 25 26 27 28 29 30 31 32 33 34 35 36 37 38 39 40 41 42 43 44 45 46 47 48 49 50

000
ASUS43 KMPX 191510
RWRMN
WEATHER ROUNDUP FOR MINNESOTA
NATIONAL WEATHER SERVICE TWIN CITIES/CHANHASSEN MN
900 AM CST SUN FEB 19 2017


NOTE: "FAIR" INDICATES FEW OR NO CLOUDS BELOW 12,000 FEET WITH NO
SIGNIFICANT WEATHER AND/OR OBSTRUCTIONS TO VISIBILITY. N/A MEANS
CURRENT SKY AND/OR WEATHER CONDITIONS ARE NOT AVAILABLE.

MNZ060>063-068>070-191600-
   Twin Cities Metro

CITY           SKY/WX    TMP DP  RH WIND       PRES   REMARKS
TWIN CITIES    PTSUNNY   40  35  83 SE5       29.96S
ST PAUL        CLOUDY    37  35  92 E5        29.98S
CRYSTAL        CLOUDY    42  35  76 SE3       29.94S
BLAINE         MOSUNNY   43  43 100 SE5       29.95S
LAKEVILLE      CLOUDY    32  32 100 CALM      29.95F
EDEN PRAIRIE   CLOUDY    40  36  86 E7        29.93F
SOUTH ST PAUL  SUNNY     37  34  87 SE5       29.96F
LAKE ELMO      FAIR      37  36  93 CALM      29.98R
$$
MNZ001>005-007-008-013>017-022>024-027-028-191600-
   Northwest Minnesota

CITY           SKY/WX    TMP DP  RH WIND       PRES   REMARKS
BEMIDJI        MOSUNNY   34  32  92 SE8       29.88S WCI  27
HALLOCK        CLOUDY    36  32  87 E16       29.80F
ROSEAU         PTSUNNY   36  28  75 E8        29.87F
WARROAD        CLOUDY    32  28  86 E9        29.89F FOG     WCI  24
THIEF RVR FALL MOSUNNY   35  31  85 E14       29.84S WCI  26
CROOKSTON      MOSUNNY   39  36  87 SE12      29.80F
FOSSTON        CLOUDY    37  32  81 SE14G20   29.83F
DETROIT LAKES  CLOUDY    41  36  81 SE12      29.83F
MOORHEAD       MOSUNNY   41  37  87 SE10      29.78F
PARK RAPIDS    CLOUDY    40  31  70 SE12      29.87F
MAHNOMEN       FAIR      41  35  79 SE12G17   29.82F
$$
MNZ006-009>011-018-025>026-191600-
   North Central Minnesota

CITY           SKY/WX    TMP DP  RH WIND       PRES   REMARKS
BAUDETTE       CLOUDY    32  28  85 E10       29.89F WCI  24
FLAG ISLAND    MOSUNNY   34  28  80 E8        29.90F WCI  27
INTL FALLS     CLOUDY    32  28  85 E7        29.94S WCI  26
WASKISH        MOSUNNY   36  32  87 SE8       29.89F
BIG FORK       CLOUDY    32  30  93 CALM      29.93S
LONGVILLE      CLOUDY    36  32  87 SE6       29.90F
GRAND RAPIDS   MOSUNNY   35  31  85 SE6       29.95F WCI  30
CRANE LAKE     CLOUDY    28  27  93 CALM      29.98S
ORR            CLOUDY    34  28  80 CALM      29.93S
COOK           CLOUDY    32  30  93 CALM      29.96R
WALKER         FAIR      35  31  87 CALM      29.89F
$$
MNZ012-019>021-037-191600-
   Northeast Minnesota

CITY           SKY/WX    TMP DP  RH WIND       PRES   REMARKS
DULUTH         MOSUNNY   36  31  82 E7        29.96R
ELY            MOSUNNY   30  28  93 CALM      29.96S
HIBBING        MOSUNNY   30  30 100 CALM      29.96R
EVELETH        CLOUDY    34  31  89 CALM      29.97S
DULUTH HARBOR  CLOUDY    34  30  86 CALM      30.00S
TWO HARBORS    MOSUNNY   37  32  81 CALM      29.97R
GRAND MARAIS     N/A     37  33  85 CALM      30.00R
G MARAIS ARPRT CLOUDY    32  25  74 CALM      29.96R
$$
MNZ029>031-032-039>041-046>048-054>057-064-191600-
   West Central Minnesota

CITY           SKY/WX    TMP DP  RH WIND       PRES   REMARKS
FERGUS FALLS   MOSUNNY   45  37  76 SE13      29.84S
WHEATON        CLOUDY    37  36  93 SE13      29.79F
MORRIS         PTSUNNY   39  37  93 SE15      29.80F
ALEXANDRIA     MOSUNNY   40  37  89 SE13      29.85F
ELBOW LAKE     FAIR      42  39  87 SE13      29.81F
WADENA         CLOUDY    37  36  93 E8        29.86F
GLENWOOD       MOSUNNY   37  36  93 E10       29.86S FOG
APPLETON       CLOUDY    39  37  93 SE9       29.80F
BENSON         CLOUDY    45  37  76 SE13      29.84F
ORTONVILLE     CLOUDY    37  36  93 SE10      29.78F
WILLMAR        FAIR      39  39 100 CALM      29.87F
$$
MNZ033>034-036-042>043-049>051-058-059-191600-
   Central Minnesota

CITY           SKY/WX    TMP DP  RH WIND       PRES   REMARKS
ST CLOUD       CLOUDY    40  38  93 SE7       29.92F
SAUK CENTRE    FAIR      37  37  97 E8        29.88F
PAYNESVILLE    CLOUDY    40  40 100 SE12      29.88F
AITKIN         CLOUDY    39  30  70 CALM      29.92S
PINE RIVER     CLOUDY    37  32  81 SE8       29.94F
BRAINERD       MOSUNNY   38  33  82 SE8       29.92F
STAPLES        MOSUNNY   37  36  93 E5        29.88F
LONG PRAIRIE   FAIR      36  36 100 E6        29.88F
LITTLE FALLS   MOSUNNY   37  36  93 E7        29.91F
LITCHFIELD     MOSUNNY   39  39 100 SE8       29.90F
BUFFALO        SUNNY     41  37  84 SE5       29.94S
MAPLE LAKE     SUNNY     40  40  99 SE5       29.93S
HUTCHINSON     CLOUDY    39  39  98 E9        29.90F
$$
MNZ037-044-045-052-053-191600-
   East Central Minnesota

CITY           SKY/WX    TMP DP  RH WIND       PRES   REMARKS
PRINCETON      SUNNY     39  39 100 CALM      29.94F
MORA           SUNNY     36  34  93 CALM      29.97S
CAMBRIDGE      CLOUDY    41  34  75 CALM      29.93F
RUSH CITY      SUNNY     34  34 100 CALM      29.96S
MOOSE LAKE     CLOUDY    34  30  86 CALM      29.95S
HINCKLEY       FAIR      37  37 100 E3        29.96S
CLOQUET        MOSUNNY   36  30  80 E5        29.96S
MCGREGOR       MOSUNNY   36  32  87 CALM      29.95S
$$
MNZ071>073-080-081-089-090-097-098-191600-
   Southwest Minnesota

CITY           SKY/WX    TMP DP  RH WIND       PRES   REMARKS
MONTEVIDEO     MOSUNNY   39  39 100 S12       29.83F
GRANITE FALLS  MOSUNNY   41  38  90 E8        29.84F
CANBY          MOSUNNY   41  37  86 CALM      29.79F
MARSHALL       CLOUDY    46  37  71 S15       29.81F
REDWOOD FALLS  MOSUNNY   40  36  86 SE12      29.86F
OLIVIA         PTSUNNY   39  37  93 SE10      29.86F
PIPESTONE      MOSUNNY   45  34  65 S14       29.79F
WINDOM         CLOUDY    46  37  71 SE17      29.86F
WORTHINGTON    CLOUDY    42  36  79 S13       29.85F
JACKSON        CLOUDY    43  36  75 S16       29.88F
TRACY          CLOUDY    46  39  75 S15G23    29.82F
SLAYTON        CLOUDY    38  36  91 SE14      29.83F
$$
MNZ065>067-074>077-082>085-091>093-191600-
   South Central Minnesota

CITY           SKY/WX    TMP DP  RH WIND       PRES   REMARKS
MANKATO          N/A     40  37  89 SE14      29.91F
NEW ULM        CLOUDY    39  37  93 SE10      29.89F
ST JAMES       CLOUDY    39  37  93 SE10      29.90F
FAIRMONT       MOSUNNY   39  39 100 S10       29.91F
GLENCOE        MOSUNNY   38  38 100 E6        29.91F
FARIBAULT      MOSUNNY   41  37  87 CALM      29.95F
OWATONNA       CLOUDY    43  37  81 SE9       29.95F
WASECA         MOSUNNY   36  34  93 E10       29.94F
ALBERT LEA     CLOUDY    39  39 100 SE7       29.95S
$$
MNZ078>079-086>088-094>096-191600-
   Southeast Minnesota

CITY           SKY/WX    TMP DP  RH WIND       PRES   REMARKS
ROCHESTER      CLOUDY    38  36  92 S9        29.99R
RED WING       CLOUDY    36  34  93 E5        29.98S
STANTON        MOSUNNY   36  33  91 CALM      29.95F
DODGE CENTER   CLOUDY    37  36  93 SE3       29.97S
WINONA         MOSUNNY   34  32  93 CALM      30.02R
AUSTIN         SUNNY     37  37 100 SE6       29.97S
PRESTON        CLOUDY    38  34  84 S5        30.00R
$$
ABBREVIATIONS USED IN REMARKS
   TC - TEMPERATURES IN CELSIUS
  WCI - WIND CHILL INDEX
   HX - HEAT INDEX
  VSB - VISIBILITY
$$




USA.gov is the U.S. government's official web portal to all federal, state and local government web resources and services.